Contact Us:
Email: info@sawbill.com
Phone: (218)663-7150
Fax: (218)663-7980
Mail: 4620 Sawbill Trail
Box 2129
Tofte, MN 55615


Powered by
Movable Type 3.15
 
Sawbill Weather History
Check out the 7 Day Weather Forecast for the Superior National Forest.
Date High
Temperature
Low
Temperature
Barometric
Pressure
Relative
Humidity 7AM
9 AM
Temperature
Moisture Snow
7/30/14 71 50 30.01 81% 59 .03"
7/29/14 69 47 30.02 86% 50 .25"
7/28/14 70 53 30.04 90% 56 .13"
7/27/14 65 53 30.08 85% 53 0
7/26/14 78 57 29.88 94% 60 .57"
7/25/14 71 55 29.84 93% 64 Trace
7/24/14 72 47 29.96 82% 55 0
7/23/14 71 44 30.00 94% 47 0
7/22/14 70 58 30.14 83% 58 0
7/21/14 87 65 29.82 97% 65 .35"
7/20/14 77 59 29.98 89% 72 .02"
7/19/14 72 58 29.96 90% 59 .02"
7/18/14 74 57 29.96 87% 58 0
7/17/14 73 50 30.04 86% 58 0
7/16/14 70 50 30.02 74% 50 0
7/15/14 65 50 30.04 58% 54 0
7/14/14 58 51 30.02 73% 54 .4"
7/13/14 67 51 29.88 90% 51 .09"
7/12/14 70 52 29.92 65% 57 0
7/11/14 68 57 30.02 88% 57 .09"
7/10/14 72 49 30.02 90% 58 .06"
7/9/14 67 50 30.00 68% 50 .08"
7/8/14 65 46 30.06 84% 49 0
7/7/14 74 50 29.78 95% 50 .5"
7/6/14 73 59 29.76 83% 60 0
7/5/14 71 60 29.82 98% 60 2.51"
7/4/14 73 49 30.10 98% 57 .96"
7/3/14 69 48 30.18 73% 49 0
7/2/14 66 50 30.10 81% 52 0
7/1/14 65 50 29.96 72% 50 0
6/30/14 77 59 29.70 93% 60 .08
6/29/14 72 59 29.72 72% 59 .46"
6/28/14 78 62 29.84 98% 63 .09"
6/27/14 68 48 29.96 98% 65 .26"
6/26/14 72 55 30.02 78% 66 0
6/25/14 65 42 30.10 59% 51 0
6/24/14 62 50 30.04 83% 51 .5"
6/23/14 72 54 30.00 89% 58 .13"
6/22/14 68 53 29.96 89% 54 0
6/21/14 67 53 30.00 96% 56 .06"
6/20/14 58 50 30.00 87% 53 .65"
6/19/14 67 54 30.06 84% 54 .24"
6/18/14 69 52 30.12 64% 55 0
6/17/14 76 55 30.04 81% 56 0
6/16/14 76 55 29.92 84% 56 .1"
6/15/14 59 49 29.90 88% 55 .5"
6/14/14 52 46 29.88 85% 50 .61"
6/13/14 64 47 30.06 71% 47 Trace
6/12/14 56 42 29.90 72% 48 .33"
6/11/14 73 47 29.78 98% 55 .5"
6/10/14 71 47 30.00 72% 47 0
6/9/14 68 43 30.06 40% 60 Trace
6/8/14 66 42 30.08 69% 43 0
6/7/14 62 43 30.18 40% 56 .39"
6/6/14 75 53 30.08 73% 53 .2"
6/5/14 70 53 30.00 79% 54 Trace
6/4/14 70 41 30.02 47% 56 0
6/3/14 65 45 30.00 89% 49 0
6/2/14 65 48 29.99 85% 45 .89"
6/1/14 68 59 29.88 98% 59 2.5"
5/31/14 71 57 29.98 98% 60 .37"
5/30/14 80 50 30.12 65% 57 0
5/29/14 81 46 30.16 55% 50 0
5/28/14 72 41 30.14 68% 45 0
5/27/14 71 40 30.14 59% 52 0
5/26/14 76 44 30.04 59% 51 0
5/25/14 81 55 30.00 74% 63 0
5/24/14 78 42 30.10 60% 55 0
5/23/14 67 38 30.18 67% 42 0
5/22/14 60 38 30.20 74% 38 0
5/21/14 57 46 30.14 88% 46 .06"
5/20/14 59 46 29.98 96% 48 1.1"
5/19/14 61 42 29.96 98% 46 .97"
5/18/14 64 42 30.08 68% 42 0
5/17/14 59 32 30.04 66% 43 0
5/16/14 47 30 30.02 66% 32 0
5/15/14 42 30 30.08 68% 33 Trace Trace
5/14/14 43 35 30.16 66% 36 0
5/13/06 48 34 30.12 50% 39 0
5/12/14 45 39 29.92 98% 39 .49"
5/11/14 65 42 30.02 72% 43 .05"
5/10/14 62 35 30.04 44% 57 0
5/9/14 52 35 29.96 99% 37 .16"
5/8/14 59 41 30.02 99% 43 .43"
5/7/14 58 41 29.96 97% 41 .33"
5/6/14 46 35 29.92 44% 45 0
5/5/14 46 30 30.10 79% 35 0
5/4/14 46 33 30.12 79% 35 Trace Trace
5/3/14 47 32 30.06 81% 33 .03" Trace
5/2/14 48 36 29.84 89% 36 .18"
5/1/14 40 36 29.86 89% 38 Trace
4/30/14 40 35 29.88 98% 35 .39" Trace
4/29/14 42 33 29.98 94% 35 Trace Trace
4/28/14 43 33 30.06 46% 33 0
4/27/14 39 30 30.10 42% 37 0
4/26/14 41 28 30.12 47% 33 0
4/25/14 37 30 30.08 78% 31 .1" 1"
4/24/14 38 31 29.84 84% 33 .69" 7"
4/23/14 48 34 30.06 77% 36 0
4/22/14 45 25 30.14 65% 34 0
4/21/14 54 32 30.06 65% 33 Trace Trace
4/20/14 54 32 30.00 65% 39 Trace
4/19/14 36 28 30.10 92% 34 .44" 3
4/18/14 38 24 30.24 76% 29 Trace Trace
4/17/14 33 24 30.28 77% 24 .26" 2"
4/16/14 30 11 30.16 77% 27 .25" 2.5"
4/15/14 26 8 30.14 46% 11 0
4/14/14 25 13 30.04 59% 13 Trace Trace
4/13/14 38 16 30.02 48% 16 0
4/12/14 42 28 29.98 91% 33 Trace Trace
4/11/14 47 28 29.98 66% 34 0
4/10/14 45 26 29.98 68% 30 0
4/9/14 50 31 29.74 54% 37 0
4/8/14 43 30 29.80 55% 31 0
4/7/14 44 31 29.98 79% 31 .22"
4/6/14 45 28 29.92 83% 29 0
4/5/14 43 9 30.01 74% 35 0
4/4/14 34 8 30.03 79% 9 Trace Trace
4/3/14 35 24 30.00 79% 24 .37" 3"
4/2/14 34 12 30.16 64% 24 0
4/1/14 17 10 30.12 71% 12 .16" 2"
3/31/14 42 12 29.74 65% 12 .05" .5"
3/30/14 48 27 30.01 57% 37 0
3/29/14 35 7 30.02 67% 27 0
3/28/14 29 7 30.19 51% 7 0
3/27/14 28 12 30.05 64% 12 .25" 2.5"
3/26/14 24 -6 29.85 73% 22 .01" 1"
3/25/14 14 -10 30.06 44% -6 0
3/24/14 21 -2 30.05 53% -2 Trace Trace
3/23/14 15 -7 30.13 45% -1 Trace Trace
3/22/14 12 -5 30.27 61% -2 Trace Trace
3/21/14 31 4 30.12 61% 4 .5" 5"
3/20/14 34 18 30.00 65% 20 0
3/19/14 29 20 30.02 75% 24 Trace Trace
3/18/14 28 20 29.96 75% 20 Trace Trace
3/17/14 22 14 30.00 78% 22 0
3/16/14 21 -15 29.88 72% 14 .1" 1"
3/15/14 14 -19 30.31 39% -15 0
3/14/14 34 4 30.12 61% 7 .14" 1.5"
3/13/14 39 5 29.74 79% 34 0
 


Home I Trip Planning I Rentals and Outfitting I Reservations I Campgrounds I Sawbill Store I Sawbill News I Contact

© 1997 - 2014, Sawbill Canoe Outfitters, Inc. I Privacy Policy